sat.trackr.live / text

‹ back to catalog

STARLINK-30566

NORAD 58054 · 2023-158D

PAYLOAD ACTIVE UNKNOWN

§ Identity

Operator
Country
US
Launch date
2023-10-13
Launch site
AFETR
Launch vehicle
Mass (kg)
RCS (m²)

Purposes: comms

External: N2YO · Heavens-Above · Gunter

§ Orbital elements

Epoch: 2026-09-20T08:33:21.974112Z

Period
94.27 min
Inclination
43.0071°
Eccentricity
0.0002525
Mean motion
15.27571321 rev/d
Perigee alt
481.3 km
Apogee alt
484.8 km
Semi-major
6,861.2 km
B*
-1.0153e-5
RAAN
7.5151°
Arg perigee
279.6516°
Mean anomaly
80.4051°
Rev number
16,334

§ Raw data

STARLINK-305661 58054U 23158D   26263.35650433 -.00000542  00000+0 -10153-4 0  99952 58054  43.0071   7.5151 0002525 279.6516  80.4051 15.27571321163347

JSON: /api/v1/satellites/58054 · /tle

For live sub-satellite position, see the globe view (requires WebGL).

§ Visibility from observer

Set your observer location to see the next 7 days of passes ≥ 10°. The values pass through the URL so the page stays shareable.

No JS? Fill the form by hand. The geolocation button needs JavaScript.